| time (UTC) | temp F | wind direction | speed MPH | gust MPH | rain 1hr in | rain 24hr in | rain mn in | humidity % | barometer mb |
| 20260508145820 | 49 | 23 | 8.0 | 17.0 | 0.01 | 0.34 | 0.34 | 99 | 996.8 |
| 20260508145309 | 49 | 45 | 9.0 | 18.0 | 0.01 | 0.34 | 0.34 | 99 | 996.9 |
| 20260508144813 | 49 | 315 | 8.0 | 18.0 | 0.01 | 0.34 | 0.34 | 99 | 996.8 |
| 20260508143750 | 49 | 338 | 9.0 | 21.0 | 0.00 | 0.33 | 0.33 | 99 | 996.8 |
| 20260508143236 | 49 | 315 | 9.0 | 20.0 | 0.00 | 0.33 | 0.33 | 99 | 996.9 |
| 20260508142724 | 49 | 68 | 8.0 | 18.0 | 0.00 | 0.33 | 0.33 | 99 | 996.7 |
| 20260508142221 | 49 | 338 | 6.0 | 13.0 | 0.00 | 0.33 | 0.33 | 99 | 996.6 |
| 20260508141701 | 49 | 338 | 7.0 | 15.0 | 0.00 | 0.33 | 0.33 | 99 | 996.8 |
| 20260508141150 | 49 | 23 | 4.0 | 20.0 | 0.00 | 0.33 | 0.33 | 99 | 996.9 |
| 20260508140637 | 49 | 45 | 4.0 | 20.0 | 0.01 | 0.33 | 0.33 | 99 | 996.7 |
| 20260508140128 | 49 | 23 | 6.0 | 14.0 | 0.01 | 0.33 | 0.33 | 99 | 996.7 |
| 20260508135108 | 49 | 45 | 5.0 | 15.0 | 0.01 | 0.33 | 0.33 | 99 | 996.7 |
| 20260508134557 | 49 | 68 | 4.0 | 18.0 | 0.01 | 0.33 | 0.33 | 99 | 996.7 |
| 20260508134047 | 49 | 45 | 8.0 | 18.0 | 0.01 | 0.33 | 0.33 | 99 | 996.7 |
| 20260508133538 | 49 | 0 | 4.0 | 15.0 | 0.01 | 0.33 | 0.33 | 99 | 996.7 |
| 20260508132516 | 49 | 90 | 5.0 | 14.0 | 0.02 | 0.33 | 0.33 | 99 | 996.7 |
| 20260508132011 | 49 | 315 | 5.0 | 16.0 | 0.02 | 0.33 | 0.33 | 99 | 996.5 |
| 20260508131459 | 49 | 45 | 5.0 | 16.0 | 0.04 | 0.33 | 0.33 | 99 | 996.5 |
| 20260508130436 | 49 | 45 | 7.0 | 15.0 | 0.04 | 0.32 | 0.32 | 99 | 996.3 |
| 20260508125927 | 49 | 45 | 8.0 | 13.0 | 0.05 | 0.32 | 0.32 | 99 | 996.5 |
| 20260508125416 | 49 | 68 | 2.0 | 15.0 | 0.05 | 0.32 | 0.32 | 99 | 996.2 |
| 20260508124905 | 49 | 45 | 8.0 | 15.0 | 0.06 | 0.32 | 0.32 | 99 | 996.1 |
| 20260508124356 | 49 | 23 | 4.0 | 15.0 | 0.08 | 0.32 | 0.32 | 99 | 996.4 |
| 20260508123846 | 49 | 0 | 4.0 | 14.0 | 0.11 | 0.32 | 0.32 | 99 | 996.3 |
| 20260508123337 | 48 | 90 | 4.0 | 14.0 | 0.12 | 0.31 | 0.31 | 99 | 996.3 |
| 20260508122315 | 48 | 0 | 4.0 | 14.0 | 0.14 | 0.31 | 0.31 | 99 | 996.0 |
| 20260508121805 | 48 | 23 | 3.0 | 15.0 | 0.15 | 0.30 | 0.30 | 99 | 996.3 |
| 20260508121255 | 48 | 0 | 4.0 | 18.0 | 0.18 | 0.30 | 0.30 | 99 | 996.1 |
| 20260508120745 | 48 | 0 | 4.0 | 18.0 | 0.18 | 0.28 | 0.28 | 99 | 996.1 |
| 20260508120235 | 48 | 338 | 4.0 | 15.0 | 0.18 | 0.27 | 0.27 | 99 | 996.0 |
| 20260508115726 | 48 | 45 | 7.0 | 15.0 | 0.19 | 0.27 | 0.27 | 99 | 996.1 |
| 20260508115215 | 48 | 338 | 8.0 | 15.0 | 0.19 | 0.27 | 0.27 | 99 | 995.7 |
| 20260508114156 | 48 | 23 | 6.0 | 22.0 | 0.19 | 0.22 | 0.22 | 98 | 995.7 |
| 20260508113134 | 48 | 0 | 7.0 | 16.0 | 0.18 | 0.19 | 0.19 | 98 | 995.7 |
| 20260508112625 | 47 | 45 | 4.0 | 15.0 | 0.15 | 0.17 | 0.18 | 98 | 995.7 |
| 20260508111605 | 48 | 0 | 7.0 | 16.0 | 0.13 | 0.14 | 0.14 | 98 | 995.6 |
| 20260508111053 | 48 | 45 | 7.0 | 16.0 | 0.11 | 0.12 | 0.12 | 98 | 995.5 |
| 20260508110543 | 48 | 45 | 6.0 | 16.0 | 0.08 | 0.09 | 0.09 | 98 | 995.3 |
| 20260508105523 | 48 | 338 | 8.0 | 16.0 | 0.07 | 0.08 | 0.08 | 97 | 995.4 |
| 20260508105014 | 49 | 23 | 6.0 | 20.0 | 0.06 | 0.07 | 0.07 | 97 | 995.2 |
| 20260508104504 | 49 | 23 | 8.0 | 20.0 | 0.04 | 0.05 | 0.05 | 97 | 995.2 |
| 20260508103954 | 49 | 338 | 7.0 | 17.0 | 0.01 | 0.02 | 0.02 | 97 | 995.2 |
| 20260508102933 | 49 | 23 | 5.0 | 16.0 | 0.00 | 0.01 | 0.01 | 97 | 995.0 |
| 20260508101914 | 49 | 338 | 5.0 | 17.0 | 0.00 | 0.01 | 0.01 | 97 | 994.9 |
| 20260508101407 | 49 | 23 | 8.0 | 17.0 | 0.00 | 0.01 | 0.01 | 97 | 994.9 |
| 20260508100854 | 49 | 23 | 7.0 | 15.0 | 0.00 | 0.01 | 0.01 | 97 | 994.7 |
| 20260508100344 | 49 | 23 | 9.0 | 20.0 | 0.00 | 0.01 | 0.01 | 97 | 994.8 |
| 20260508095832 | 49 | 45 | 4.0 | 20.0 | 0.00 | 0.01 | 0.01 | 97 | 994.9 |
| 20260508095323 | 49 | 338 | 7.0 | 18.0 | 0.00 | 0.01 | 0.01 | 97 | 994.9 |
| 20260508094813 | 49 | 23 | 5.0 | 16.0 | 0.00 | 0.01 | 0.01 | 97 | 995.0 |
| 20260508093751 | 50 | 45 | 8.0 | 15.0 | 0.00 | 0.01 | 0.01 | 98 | 994.6 |
| 20260508093242 | 50 | 23 | 8.0 | 15.0 | 0.00 | 0.01 | 0.01 | 98 | 994.6 |
| 20260508092731 | 50 | 68 | 9.0 | 16.0 | 0.00 | 0.01 | 0.01 | 98 | 994.8 |
| 20260508092223 | 50 | 23 | 8.0 | 16.0 | 0.01 | 0.01 | 0.01 | 97 | 994.6 |
| 20260508091712 | 50 | 45 | 4.0 | 17.0 | 0.01 | 0.01 | 0.01 | 97 | 994.6 |
| 20260508085631 | 50 | 315 | 7.0 | 17.0 | 0.01 | 0.01 | 0.01 | 98 | 994.6 |
| 20260508085121 | 50 | 0 | 4.0 | 18.0 | 0.01 | 0.01 | 0.01 | 98 | 994.5 |
| 20260508084616 | 50 | 45 | 8.0 | 18.0 | 0.01 | 0.01 | 0.01 | 98 | 994.6 |
| 20260508084104 | 50 | 45 | 8.0 | 16.0 | 0.01 | 0.01 | 0.01 | 98 | 994.6 |
| 20260508082530 | 50 | 0 | 8.0 | 20.0 | 0.00 | 0.00 | 0.01 | 97 | 994.9 |
| 20260508082021 | 50 | 23 | 4.0 | 20.0 | 0.00 | 0.00 | 0.00 | 97 | 995.0 |
| 20260508081513 | 50 | 23 | 5.0 | 15.0 | 0.00 | 0.00 | 0.00 | 97 | 995.0 |
| 20260508081000 | 50 | 45 | 6.0 | 17.0 | 0.00 | 0.00 | 0.00 | 97 | 994.9 |
| 20260508080450 | 50 | 68 | 10.0 | 17.0 | 0.00 | 0.00 | 0.00 | 97 | 994.8 |
| 20260508075429 | 51 | 23 | 5.0 | 13.0 | 0.00 | 0.00 | 0.00 | 96 | 994.8 |
| 20260508074920 | 51 | 68 | 4.0 | 16.0 | 0.00 | 0.00 | 0.00 | 96 | 995.1 |
| 20260508074409 | 51 | 23 | 8.0 | 20.0 | 0.00 | 0.00 | 0.00 | 96 | 994.9 |
| 20260508073859 | 51 | 23 | 4.0 | 20.0 | 0.00 | 0.00 | 0.00 | 96 | 995.1 |
| 20260508073347 | 51 | 68 | 8.0 | 0.0 | 0.00 | 0.00 | 0.00 | 96 | 995.0 |
| 20260508073150 | 51 | 338 | 5.0 | 0.0 | 0.00 | 0.00 | 0.00 | 96 | 994.9 |
| 20260508072710 | 51 | 68 | 4.0 | 14.0 | 0.00 | 0.02 | 0.00 | 97 | 995.0 |
| 20260508071647 | 51 | 68 | 4.0 | 14.0 | 0.00 | 0.02 | 0.00 | 97 | 995.2 |
| 20260508071135 | 51 | 23 | 5.0 | 17.0 | 0.00 | 0.02 | 0.00 | 97 | 995.1 |
| 20260508070625 | 51 | 23 | 8.0 | 18.0 | 0.00 | 0.02 | 0.00 | 97 | 995.1 |
| 20260508070115 | 51 | 45 | 11.0 | 18.0 | 0.00 | 0.02 | 0.00 | 97 | 995.0 |
| 20260508065605 | 51 | 0 | 7.0 | 14.0 | 0.00 | 0.02 | 0.00 | 98 | 995.1 |
| 20260508065054 | 51 | 23 | 5.0 | 14.0 | 0.00 | 0.02 | 0.00 | 98 | 995.0 |
| 20260508064544 | 51 | 68 | 4.0 | 13.0 | 0.00 | 0.02 | 0.00 | 98 | 995.1 |
| 20260508063524 | 51 | 23 | 6.0 | 14.0 | 0.00 | 0.02 | 0.00 | 98 | 995.3 |
| 20260508063015 | 51 | 23 | 4.0 | 13.0 | 0.00 | 0.02 | 0.00 | 98 | 995.3 |
| 20260508062504 | 51 | 90 | 3.0 | 11.0 | 0.00 | 0.02 | 0.00 | 97 | 995.6 |
| 20260508061954 | 51 | 68 | 4.0 | 11.0 | 0.00 | 0.02 | 0.00 | 97 | 995.6 |
| 20260508061444 | 51 | 0 | 6.0 | 11.0 | 0.00 | 0.02 | 0.00 | 97 | 995.8 |
| 20260508060934 | 51 | 338 | 2.0 | 9.0 | 0.00 | 0.02 | 0.00 | 98 | 995.8 |
| 20260508060423 | 51 | 0 | 3.0 | 11.0 | 0.00 | 0.02 | 0.00 | 97 | 996.0 |
| 20260508055408 | 51 | 23 | 4.0 | 11.0 | 0.00 | 0.02 | 0.00 | 97 | 996.1 |
| 20260508054343 | 51 | 0 | 0.0 | 11.0 | 0.00 | 0.02 | 0.00 | 97 | 996.1 |
| 20260508053833 | 51 | 45 | 2.0 | 7.0 | 0.00 | 0.02 | 0.00 | 97 | 996.1 |
| 20260508053323 | 51 | 315 | 3.0 | 11.0 | 0.00 | 0.02 | 0.00 | 97 | 996.4 |
| 20260508052813 | 51 | 23 | 2.0 | 11.0 | 0.00 | 0.02 | 0.00 | 97 | 996.4 |
| 20260508052306 | 51 | 315 | 3.0 | 11.0 | 0.00 | 0.02 | 0.00 | 97 | 996.2 |
| 20260508051753 | 51 | 23 | 2.0 | 6.0 | 0.00 | 0.02 | 0.00 | 97 | 996.3 |
| 20260508051242 | 51 | 45 | 1.0 | 7.0 | 0.00 | 0.02 | 0.00 | 97 | 996.3 |
| 20260508050733 | 51 | 270 | 1.0 | 8.0 | 0.00 | 0.02 | 0.00 | 97 | 996.2 |
| 20260508050222 | 51 | 0 | 1.0 | 11.0 | 0.00 | 0.02 | 0.00 | 97 | 996.4 |
| 20260508045712 | 51 | 0 | 2.0 | 13.0 | 0.00 | 0.02 | 0.00 | 97 | 996.2 |
| 20260508045202 | 51 | 23 | 6.0 | 14.0 | 0.00 | 0.02 | 0.00 | 97 | 996.2 |
| 20260508044652 | 51 | 45 | 4.0 | 14.0 | 0.00 | 0.02 | 0.00 | 97 | 996.3 |
| 20260508044143 | 51 | 45 | 4.0 | 11.0 | 0.00 | 0.02 | 0.00 | 97 | 996.3 |
| 20260508043631 | 51 | 0 | 5.0 | 14.0 | 0.00 | 0.02 | 0.00 | 97 | 996.3 |
| 20260508042616 | 51 | 90 | 5.0 | 21.0 | 0.00 | 0.02 | 0.00 | 98 | 996.4 |
| 20260508042104 | 51 | 68 | 4.0 | 21.0 | 0.00 | 0.02 | 0.00 | 98 | 996.4 |
| 20260508041553 | 51 | 338 | 5.0 | 16.0 | 0.00 | 0.02 | 0.00 | 98 | 996.4 |
| 20260508041042 | 51 | 68 | 7.0 | 16.0 | 0.00 | 0.02 | 0.00 | 98 | 996.5 |
| 20260508040537 | 51 | 23 | 8.0 | 16.0 | 0.00 | 0.02 | 0.00 | 98 | 996.6 |
| 20260508035000 | 51 | 0 | 7.0 | 15.0 | 0.00 | 0.02 | 0.00 | 98 | 996.7 |
| 20260508034451 | 51 | 68 | 5.0 | 16.0 | 0.00 | 0.02 | 0.00 | 98 | 996.8 |
| 20260508033940 | 51 | 23 | 4.0 | 16.0 | 0.00 | 0.02 | 0.00 | 98 | 997.0 |
| 20260508032410 | 51 | 68 | 7.0 | 15.0 | 0.00 | 0.02 | 0.00 | 99 | 997.1 |
| 20260508031900 | 51 | 0 | 4.0 | 15.0 | 0.00 | 0.02 | 0.00 | 99 | 997.0 |
| 20260508031349 | 51 | 23 | 8.0 | 15.0 | 0.00 | 0.02 | 0.00 | 99 | 997.3 |
| 20260508030330 | 51 | 68 | 6.0 | 16.0 | 0.00 | 0.02 | 0.00 | 99 | 997.5 |
| 20260508024801 | 51 | 68 | 8.0 | 15.0 | 0.01 | 0.02 | 0.59 | 99 | 997.6 |
| 20260508024249 | 52 | 338 | 7.0 | 14.0 | 0.01 | 0.02 | 0.59 | 99 | 997.7 |
| 20260508023739 | 52 | 23 | 7.0 | 14.0 | 0.01 | 0.02 | 0.59 | 99 | 997.7 |
| 20260508022720 | 53 | 68 | 5.0 | 16.0 | 0.01 | 0.02 | 0.59 | 99 | 997.3 |
| 20260508022206 | 53 | 338 | 8.0 | 15.0 | 0.01 | 0.02 | 0.59 | 99 | 997.4 |
| 20260508021656 | 53 | 0 | 4.0 | 15.0 | 0.01 | 0.02 | 0.59 | 99 | 997.6 |
| 20260508020636 | 53 | 45 | 4.0 | 18.0 | 0.01 | 0.02 | 0.59 | 99 | 997.6 |
| 20260508020126 | 53 | 45 | 5.0 | 18.0 | 0.01 | 0.02 | 0.59 | 99 | 997.5 |
| 20260508015615 | 53 | 315 | 7.0 | 14.0 | 0.01 | 0.02 | 0.59 | 99 | 997.6 |
| 20260508015105 | 53 | 293 | 8.0 | 14.0 | 0.00 | 0.01 | 0.58 | 99 | 997.6 |
| 20260508014556 | 53 | 0 | 3.0 | 11.0 | 0.00 | 0.01 | 0.58 | 99 | 997.7 |
| 20260508014044 | 53 | 315 | 5.0 | 11.0 | 0.00 | 0.01 | 0.58 | 99 | 998.0 |
| 20260508013534 | 53 | 90 | 4.0 | 8.0 | 0.00 | 0.01 | 0.58 | 99 | 998.0 |
| 20260508013024 | 53 | 45 | 3.0 | 9.0 | 0.00 | 0.01 | 0.58 | 99 | 998.2 |
| 20260508012519 | 54 | 0 | 3.0 | 9.0 | 0.00 | 0.01 | 0.58 | 99 | 998.4 |
| 20260508012006 | 54 | 45 | 3.0 | 9.0 | 0.00 | 0.01 | 0.58 | 99 | 998.4 |
| 20260508011456 | 54 | 45 | 2.0 | 9.0 | 0.00 | 0.01 | 0.58 | 99 | 998.2 |
| 20260508010944 | 54 | 23 | 3.0 | 9.0 | 0.00 | 0.01 | 0.58 | 99 | 998.5 |
| 20260508010433 | 54 | 0 | 2.0 | 9.0 | 0.00 | 0.01 | 0.58 | 99 | 998.5 |
| 20260508005923 | 54 | 45 | 2.0 | 9.0 | 0.00 | 0.01 | 0.58 | 99 | 998.6 |
| 20260508005414 | 54 | 68 | 1.0 | 9.0 | 0.00 | 0.01 | 0.58 | 99 | 998.6 |
| 20260508004409 | 54 | 338 | 2.0 | 7.0 | 0.00 | 0.01 | 0.58 | 98 | 998.7 |
| 20260508003843 | 54 | 45 | 1.0 | 7.0 | 0.00 | 0.01 | 0.58 | 98 | 998.9 |
| 20260508003333 | 54 | 338 | 0.0 | 6.0 | 0.01 | 0.01 | 0.58 | 98 | 999.0 |
| 20260508001803 | 54 | 23 | 3.0 | 11.0 | 0.01 | 0.01 | 0.58 | 98 | 998.8 |
| 20260508001252 | 54 | 45 | 4.0 | 11.0 | 0.01 | 0.01 | 0.58 | 98 | 998.9 |
| 20260508000234 | 54 | 23 | 3.0 | 9.0 | 0.01 | 0.01 | 0.58 | 98 | 998.8 |
| 20260507235723 | 55 | 338 | 3.0 | 11.0 | 0.01 | 0.01 | 0.58 | 98 | 998.9 |
| 20260507234704 | 55 | 0 | 3.0 | 11.0 | 0.01 | 0.01 | 0.58 | 98 | 998.8 |
| 20260507234151 | 55 | 45 | 3.0 | 7.0 | 0.01 | 0.01 | 0.58 | 97 | 998.7 |
| 20260507233642 | 56 | 23 | 2.0 | 4.0 | 0.01 | 0.01 | 0.58 | 98 | 998.6 |
| 20260507233132 | 55 | 23 | 1.0 | 2.0 | 0.00 | 0.00 | 0.57 | 97 | 998.7 |
| 20260507232622 | 55 | 23 | 0.0 | 0.0 | 0.00 | 0.00 | 0.57 | 97 | 998.7 |
| 20260507232116 | 55 | 0 | 0.0 | 0.0 | 0.00 | 0.00 | 0.57 | 97 | 998.6 |
| 20260507231605 | 55 | 23 | 0.0 | 0.0 | 0.00 | 0.00 | 0.57 | 97 | 998.8 |
| 20260507231054 | 55 | 23 | 0.0 | 4.0 | 0.00 | 0.00 | 0.57 | 97 | 998.8 |
| 20260507230549 | 55 | 45 | 0.0 | 4.0 | 0.00 | 0.00 | 0.57 | 97 | 998.2 |
| 20260507230035 | 55 | 0 | 0.0 | 2.0 | 0.00 | 0.00 | 0.57 | 97 | 998.5 |
| 20260507225525 | 55 | 338 | 0.0 | 0.0 | 0.00 | 0.00 | 0.57 | 97 | 998.5 |
| 20260507225014 | 55 | 338 | 0.0 | 0.0 | 0.00 | 0.00 | 0.57 | 97 | 998.6 |
| 20260507224504 | 55 | 45 | 0.0 | 4.0 | 0.00 | 0.00 | 0.57 | 97 | 998.6 |
| 20260507223953 | 55 | 23 | 0.0 | 4.0 | 0.00 | 0.00 | 0.57 | 97 | 998.2 |
| 20260507223445 | 55 | 0 | 0.0 | 4.0 | 0.00 | 0.00 | 0.57 | 97 | 998.1 |
| 20260507222428 | 55 | 23 | 0.0 | 6.0 | 0.00 | 0.00 | 0.57 | 96 | 998.1 |
| 20260507221915 | 55 | 338 | 2.0 | 6.0 | 0.00 | 0.00 | 0.57 | 96 | 998.0 |
| 20260507221405 | 55 | 23 | 2.0 | 6.0 | 0.00 | 0.00 | 0.57 | 96 | 997.9 |
| 20260507220853 | 55 | 338 | 2.0 | 6.0 | 0.00 | 0.00 | 0.57 | 96 | 998.0 |
| 20260507220343 | 55 | 338 | 0.0 | 4.0 | 0.00 | 0.00 | 0.57 | 96 | 998.1 |
| 20260507215833 | 56 | 338 | 0.0 | 6.0 | 0.00 | 0.00 | 0.57 | 96 | 998.2 |
| 20260507215323 | 56 | 23 | 3.0 | 6.0 | 0.00 | 0.00 | 0.57 | 96 | 998.0 |
| 20260507214302 | 56 | 0 | 1.0 | 4.0 | 0.00 | 0.00 | 0.57 | 96 | 998.5 |
| 20260507213242 | 56 | 338 | 3.0 | 6.0 | 0.00 | 0.00 | 0.57 | 95 | 997.5 |
| 20260507212733 | 56 | 0 | 0.0 | 4.0 | 0.00 | 0.00 | 0.57 | 95 | 997.4 |
| 20260507212222 | 56 | 0 | 0.0 | 4.0 | 0.00 | 0.00 | 0.57 | 95 | 997.3 |
| 20260507211713 | 56 | 0 | 0.0 | 6.0 | 0.00 | 0.00 | 0.57 | 95 | 997.0 |
| 20260507211202 | 56 | 23 | 2.0 | 9.0 | 0.00 | 0.00 | 0.57 | 95 | 996.7 |
| 20260507210652 | 56 | 0 | 4.0 | 9.0 | 0.00 | 0.00 | 0.57 | 94 | 996.7 |
| 20260507210142 | 56 | 0 | 3.0 | 6.0 | 0.00 | 0.00 | 0.57 | 94 | 996.7 |
| 20260507205631 | 57 | 23 | 4.0 | 7.0 | 0.00 | 0.00 | 0.57 | 94 | 997.2 |
| 20260507205127 | 57 | 0 | 4.0 | 7.0 | 0.00 | 0.00 | 0.57 | 94 | 997.4 |
| 20260507204613 | 57 | 23 | 2.0 | 7.0 | 0.00 | 0.00 | 0.57 | 93 | 997.7 |
| 20260507203551 | 57 | 0 | 3.0 | 7.0 | 0.00 | 0.00 | 0.57 | 93 | 998.2 |
| 20260507203041 | 58 | 338 | 4.0 | 7.0 | 0.00 | 0.00 | 0.57 | 93 | 998.7 |
| 20260507202531 | 58 | 0 | 2.0 | 6.0 | 0.00 | 0.00 | 0.57 | 92 | 998.6 |
| 20260507202021 | 58 | 270 | 0.0 | 6.0 | 0.00 | 0.00 | 0.57 | 92 | 999.0 |
| 20260507201517 | 58 | 0 | 2.0 | 6.0 | 0.00 | 0.00 | 0.57 | 91 | 998.9 |
| 20260507201001 | 58 | 0 | 1.0 | 6.0 | 0.00 | 0.00 | 0.57 | 90 | 999.0 |
| 20260507200451 | 59 | 338 | 2.0 | 8.0 | 0.00 | 0.00 | 0.57 | 89 | 999.1 |
| 20260507195941 | 59 | 23 | 2.0 | 8.0 | 0.00 | 0.00 | 0.57 | 89 | 999.3 |
| 20260507195431 | 59 | 0 | 2.0 | 8.0 | 0.00 | 0.00 | 0.57 | 88 | 999.3 |
| 20260507194921 | 60 | 45 | 4.0 | 8.0 | 0.00 | 0.00 | 0.57 | 89 | 999.6 |
| 20260507194410 | 60 | 45 | 3.0 | 7.0 | 0.00 | 0.00 | 0.57 | 90 | 999.6 |
| 20260507193351 | 60 | 338 | 4.0 | 9.0 | 0.00 | 0.00 | 0.57 | 90 | 999.6 |
| 20260507192840 | 60 | 338 | 3.0 | 9.0 | 0.00 | 0.00 | 0.57 | 90 | 999.5 |
| 20260507192334 | 60 | 0 | 2.0 | 9.0 | 0.00 | 0.00 | 0.57 | 90 | 999.5 |
| 20260507191313 | 59 | 338 | 4.0 | 8.0 | 0.00 | 0.00 | 0.57 | 93 | 999.7 |
| 20260507190800 | 59 | 68 | 4.0 | 6.0 | 0.00 | 0.00 | 0.57 | 94 | 999.6 |
| 20260507190249 | 58 | 338 | 2.0 | 6.0 | 0.00 | 0.00 | 0.57 | 95 | 999.6 |
| 20260507185740 | 59 | 315 | 2.0 | 6.0 | 0.00 | 0.00 | 0.57 | 95 | 999.6 |
| 20260507185229 | 59 | 0 | 2.0 | 4.0 | 0.00 | 0.00 | 0.57 | 95 | 999.7 |
| 20260507184719 | 58 | 23 | 1.0 | 7.0 | 0.00 | 0.00 | 0.57 | 95 | 999.6 |
| 20260507184209 | 59 | 23 | 3.0 | 7.0 | 0.00 | 0.00 | 0.57 | 93 | 999.6 |
| 20260507183659 | 61 | 0 | 4.0 | 11.0 | 0.00 | 0.00 | 0.57 | 90 | 999.7 |
| 20260507183148 | 61 | 315 | 4.0 | 11.0 | 0.00 | 0.00 | 0.57 | 89 | 999.5 |
| 20260507182639 | 60 | 0 | 1.0 | 7.0 | 0.00 | 0.00 | 0.57 | 90 | 999.6 |
| 20260507182125 | 60 | 45 | 1.0 | 7.0 | 0.00 | 0.00 | 0.57 | 90 | 999.3 |
| 20260507181615 | 60 | 0 | 4.0 | 7.0 | 0.00 | 0.00 | 0.57 | 90 | 999.3 |
| 20260507181104 | 61 | 23 | 2.0 | 7.0 | 0.00 | 0.00 | 0.57 | 90 | 999.0 |
| 20260507180558 | 61 | 45 | 2.0 | 7.0 | 0.00 | 0.00 | 0.57 | 91 | 998.9 |
| 20260507180048 | 61 | 338 | 2.0 | 7.0 | 0.00 | 0.00 | 0.57 | 91 | 999.0 |
| 20260507175538 | 61 | 338 | 3.0 | 7.0 | 0.00 | 0.00 | 0.57 | 90 | 999.2 |
| 20260507175032 | 61 | 0 | 3.0 | 7.0 | 0.00 | 0.00 | 0.57 | 89 | 999.5 |
| 20260507174519 | 61 | 23 | 3.0 | 7.0 | 0.00 | 0.00 | 0.57 | 91 | 999.5 |
| 20260507174009 | 61 | 23 | 2.0 | 7.0 | 0.00 | 0.00 | 0.57 | 92 | 999.4 |
| 20260507173458 | 60 | 315 | 4.0 | 7.0 | 0.00 | 0.00 | 0.57 | 91 | 999.4 |
| 20260507172946 | 60 | 338 | 1.0 | 8.0 | 0.00 | 0.00 | 0.57 | 91 | 999.2 |
| 20260507172436 | 61 | 0 | 3.0 | 8.0 | 0.00 | 0.00 | 0.57 | 89 | 999.1 |
| 20260507171926 | 61 | 338 | 3.0 | 6.0 | 0.00 | 0.00 | 0.57 | 88 | 999.0 |
| 20260507171417 | 62 | 45 | 2.0 | 8.0 | 0.00 | 0.00 | 0.57 | 88 | 998.8 |
| 20260507170907 | 61 | 338 | 3.0 | 8.0 | 0.00 | 0.00 | 0.57 | 90 | 998.5 |
| 20260507170357 | 60 | 0 | 3.0 | 6.0 | 0.00 | 0.00 | 0.57 | 92 | 998.6 |
| 20260507165846 | 60 | 338 | 2.0 | 6.0 | 0.00 | 0.00 | 0.57 | 93 | 998.6 |
| 20260507165336 | 59 | 315 | 0.0 | 8.0 | 0.00 | 0.00 | 0.57 | 93 | 998.7 |
| 20260507164826 | 59 | 338 | 2.0 | 8.0 | 0.00 | 0.00 | 0.57 | 93 | 999.1 |
| 20260507164316 | 59 | 0 | 4.0 | 7.0 | 0.00 | 0.00 | 0.57 | 96 | 998.8 |
| 20260507163805 | 59 | 338 | 4.0 | 4.0 | 0.00 | 0.00 | 0.57 | 97 | 998.8 |